San Antonio, TX

9:12 AM CDT on May 26, 2017 (GMT -0500)
San Antonio International

Weather History for KSAT - October, 2012

Change the Weather History Date:

Thursday, October 25, 2012

  Actual Average Record
Temperature  
Mean Temperature 77 °F 69 °F  
Max Temperature 87 °F 80 °F 91 °F (1991)
Min Temperature 66 °F 58 °F 36 °F (1945)
Degree Days  
Heating Degree Days 0 2  
Month to date heating degree days 15 16  
Since 1 July heating degree days 15 18  
Cooling Degree Days 12 5  
Month to date cooling degree days 238 191  
Year to date cooling degree days 3478 3025  
Growing Degree Days 28 (Base 50)    
Moisture  
Dew Point 68 °F    
Average Humidity 74    
Maximum Humidity 93    
Minimum Humidity 55    
Precipitation  
Precipitation T in 0.13 in 2.16 in (1975)
Month to date precipitation 1.02 3.43  
Year to date precipitation 37.38 27.40  
Snow  
Snow 0.00 in - - ()
Month to date snowfall 0.0  
Since 1 July snowfall 0.0  
Since 1 September snowfall 0.0  
Snow Depth 0.00 in    
Sea Level Pressure  
Sea Level Pressure 29.85 in    
Wind  
Wind Speed 8 mph (SSE)    
Max Wind Speed 21 mph    
Max Gust Speed 26 mph    
Visibility 10 miles    
Events Rain    
T = Trace of Precipitation, MM = Missing Value Source: NWS Daily Summary

Daily Weather History Graph

Daily Weather History Graph

Search for Another Location

Airport or City:

Trip Planner

Search our weather history database for the weather conditions in past years. The results will help you decide how hot, cold, wet, or windy it might be!

Date:

Astronomy

Oct. 25, 2012 Rise Set
Actual Time 7:42 AM CDT 6:52 PM CDT
Civil Twilight 7:18 AM CDT 7:17 PM CDT
Nautical Twilight 6:50 AM CDT 7:45 PM CDT
Astronomical Twilight 6:22 AM CDT 8:12 PM CDT
Moon 4:26 PM CDT (10/25) 3:56 AM CDT (10/25)
Length of Visible Light 11h 59m
Length of Day
11h 10m
Waxing Gibbous, 84% of the Moon is Illuminated
Oct 25
Waxing Gibbous
Oct 29
Full
Nov 6
Last Quarter
Nov 13
New
Nov 20
First Quarter

Hourly Weather History & Observations

Time (CDT) Temp. Heat Index Dew Point Humidity Pressure Visibility Wind Dir Wind Speed Gust Speed Precip Events Conditions
12:28 AM 71.6 °F - 69.8 °F 94% 29.89 in 10.0 mi SSE 6.9 mph - N/A   Mostly Cloudy
12:53 AM 72.0 °F - 69.1 °F 91% 29.84 in 10.0 mi SSE 8.1 mph - N/A   Overcast
1:53 AM 72.0 °F - 69.1 °F 91% 29.83 in 10.0 mi SSE 12.7 mph - N/A   Overcast
2:53 AM 72.0 °F - 70.0 °F 93% 29.82 in 10.0 mi SSE 10.4 mph - N/A   Overcast
3:53 AM 71.1 °F - 69.1 °F 93% 29.80 in 10.0 mi SSE 8.1 mph - N/A   Overcast
4:01 AM 71.6 °F - 69.8 °F 94% 29.85 in 10.0 mi SSE 8.1 mph - N/A   Overcast
4:45 AM 71.6 °F - 69.8 °F 94% 29.85 in 10.0 mi South 10.4 mph - N/A   Overcast
4:53 AM 71.1 °F - 70.0 °F 96% 29.80 in 10.0 mi South 6.9 mph - N/A   Overcast
5:53 AM 71.1 °F - 70.0 °F 96% 29.81 in 10.0 mi South 8.1 mph - N/A   Overcast
6:53 AM 71.1 °F - 70.0 °F 96% 29.81 in 10.0 mi South 10.4 mph - N/A   Overcast
7:53 AM 71.6 °F - 69.8 °F 94% 29.87 in 10.0 mi South 5.8 mph - N/A   Overcast
8:53 AM 72.0 °F - 70.0 °F 93% 29.85 in 10.0 mi SSW 9.2 mph - N/A   Overcast
9:36 AM 73.4 °F - 69.8 °F 88% 29.91 in 10.0 mi South 12.7 mph - N/A   Overcast
9:53 AM 73.9 °F - 70.0 °F 87% 29.87 in 10.0 mi SSW 9.2 mph - N/A   Mostly Cloudy
9:59 AM 73.4 °F - 69.8 °F 88% 29.92 in 10.0 mi South 11.5 mph 18.4 mph N/A   Mostly Cloudy
10:22 AM 75.2 °F - 69.8 °F 83% 29.92 in 10.0 mi South 9.2 mph - N/A   Scattered Clouds
10:53 AM 77.0 °F - 68.0 °F 74% 29.87 in 10.0 mi South 9.2 mph - N/A   Scattered Clouds
11:53 AM 81.0 °F 83.3 °F 66.9 °F 62% 29.86 in 10.0 mi South 8.1 mph - N/A   Scattered Clouds
12:53 PM 82.9 °F 85.8 °F 68.0 °F 60% 29.83 in 10.0 mi South 5.8 mph - N/A   Scattered Clouds
1:53 PM 84.0 °F 87.8 °F 69.1 °F 61% 29.81 in 10.0 mi South 9.2 mph - N/A   Mostly Cloudy
2:53 PM 86.0 °F 90.7 °F 70.0 °F 59% 29.79 in 10.0 mi South 6.9 mph - N/A   Mostly Cloudy
3:53 PM 86.0 °F 89.4 °F 68.0 °F 55% 29.79 in 10.0 mi Calm Calm - N/A   Scattered Clouds
4:53 PM 84.9 °F 88.2 °F 68.0 °F 57% 29.79 in 10.0 mi ESE 4.6 mph - N/A   Scattered Clouds
5:53 PM 82.9 °F 85.0 °F 66.0 °F 56% 29.79 in 10.0 mi ESE 3.5 mph - N/A   Scattered Clouds
6:53 PM 80.1 °F 82.1 °F 66.0 °F 62% 29.80 in 10.0 mi East 4.6 mph - N/A   Partly Cloudy
7:53 PM 78.1 °F - 66.0 °F 66% 29.83 in 10.0 mi East 3.5 mph - N/A   Scattered Clouds
8:53 PM 79.0 °F - 66.9 °F 66% 29.84 in 10.0 mi East 4.6 mph - N/A   Mostly Cloudy
9:53 PM 77.0 °F - 68.0 °F 74% 29.86 in 10.0 mi ESE 8.1 mph - N/A   Partly Cloudy
10:53 PM 75.2 °F - 69.8 °F 83% 29.94 in 10.0 mi East 4.6 mph - N/A   Scattered Clouds
11:13 PM 75.2 °F - 64.4 °F 69% 29.95 in 10.0 mi NNW 15.0 mph 19.6 mph N/A   Mostly Cloudy
11:21 PM 73.4 °F - 60.8 °F 65% 29.96 in 10.0 mi North 12.7 mph - N/A   Overcast
11:53 PM 68.0 °F - 59.0 °F 73% 29.94 in 10.0 mi NNE 13.8 mph 24.2 mph 0.00 in Rain Light Rain